[[{"header":{"parameterUnit":"m.s-1","parameterCategory":1,"la1":30.2991,"la2":30.254,"lo1":-89.0895,"lo2":-89.0444,"dx":0.0017,"dy":0.0017,"nx":28,"ny":28,"refTime":"2023-02-06T15:00:00:Z","depth":0,"parameterNumber":2,"parameterNumberName":"U-component_of_WINDS"},"data":[0,0,0,0,0,0,0,0,0,0,0,0,0,0,0,0,0,0,0,0,0,0,0,0,0,0,0,0,0,0,0,0,0,0,0,0,0,0,0,0,0,0,0,0,0,0,0,0,0,0,0,0,0,0,0,0,0,0,-1.9092,-1.9093,0,-1.912,-1.9121,-1.9121,-1.9063,-1.9061,-1.9059,-1.9057,-1.9087,-1.9089,-1.9092,0,0,0,0,0,0,0,0,0,0,0,0,0,-1.899,-1.8992,-1.9092,-1.9093,-1.9093,-1.912,-1.9121,-1.9121,-1.9063,-1.9061,-1.9058,-1.9056,-1.9086,-1.9089,-1.9092,0,0,0,0,0,0,0,0,0,0,0,0,0,-1.9028,-1.8993,-1.9092,-1.9067,-1.9065,-1.912,-1.9121,-1.9121,-1.9064,-1.9061,-1.9058,-1.9055,-1.9085,-1.9089,-1.9093,-1.9173,0,0,-1.9104,-1.9106,0,0,0,0,0,0,0,0,-1.9026,-1.9032,-1.9071,-1.9069,-1.9067,-1.9085,-1.9095,-1.9139,-1.9064,-1.9064,-1.9057,-1.9054,-1.9089,-1.9092,-1.9103,-1.9174,-1.9176,-1.9105,-1.9107,-1.9109,-1.911,0,0,0,0,0,0,0,-1.9023,-1.903,-1.9103,-1.9071,-1.9069,-1.9055,-1.9057,-1.9103,-1.9092,-1.9064,-1.906,-1.9064,-1.9087,-1.91,-1.9104,-1.9176,-1.9104,-1.9108,-1.911,-1.9112,-1.9315,-1.9318,0,0,0,0,0,0,-1.9024,-1.9028,-1.9102,-1.9104,-1.9039,-1.9059,-1.9062,-1.9082,-1.9091,-1.909,-1.9066,-1.9061,-1.9095,-1.9099,-1.9105,-1.92,-1.9109,-1.9112,-1.9114,-1.9312,-1.9316,-1.9319,0,0,0,0,0,0,-1.9022,-1.9031,-1.9101,-1.9065,-1.9073,-1.9064,-1.9087,-1.9084,-1.9097,-1.9093,-1.9091,-1.9082,-1.9093,-1.9099,-1.9157,-1.92,-1.9114,-1.9117,-1.9309,-1.9313,-1.9318,-1.9392,0,0,0,0,0,0,-1.9019,-1.903,-1.9061,-1.9066,-1.9075,-1.9153,-1.909,-1.9087,-1.9104,-1.9097,-1.9107,-1.9106,-1.9091,-1.9151,-1.916,-1.9204,-1.912,-1.9305,-1.9311,-1.9316,-1.9385,-1.9398,-1.941,0,0,0,0,0,-1.9016,-1.908,-1.9062,-1.9072,-1.9113,-1.9155,-1.916,-1.9142,-1.9107,-1.9138,-1.9136,-1.9105,-1.9194,-1.9158,-1.9167,-1.9213,-1.9302,-1.9309,-1.9316,-1.938,-1.9396,-1.9409,0,0,0,0,0,0,-1.908,-1.9081,-1.9061,-1.9129,-1.9143,-1.9145,-1.9183,-1.9159,-1.9183,-1.9176,-1.9152,-1.9155,-1.9217,-1.9221,-1.918,-1.9292,-1.9242,-1.9251,-1.9288,-1.9303,-1.9314,-1.9313,-1.9124,0,0,0,0,0,-1.9102,-1.9137,-1.9135,-1.9196,-1.9203,-1.9193,-1.921,-1.9195,-1.9208,-1.9214,-1.9215,-1.9229,-1.926,-1.9281,-1.931,-1.9385,-1.9387,-1.9422,-1.9434,-1.9444,-1.9452,-1.9493,-1.9509,-1.9342,-1.9342,-1.9342,0,0,-1.9149,-1.9153,-1.9176,-1.9209,-1.9217,-1.9254,-1.9198,-1.9238,-1.9266,-1.922,-1.9274,-1.9276,-1.929,-1.9358,-1.9387,-1.9362,-1.9499,-1.9452,-1.946,-1.9464,-1.9502,-1.9518,-1.9532,-1.9347,-1.9346,-1.9346,0,0,-1.9252,-1.9258,-1.931,-1.932,-1.9334,-1.9326,-1.9338,-1.9345,-1.9344,-1.9399,-1.9365,-1.9397,-1.9451,-1.9463,-1.9476,-1.9584,-1.9558,-1.9594,-1.9658,-1.9698,-1.9711,-1.9723,-1.9763,-1.9777,-1.9603,-1.9603,-1.9603,0,-1.9308,-1.9361,-1.934,-1.9383,-1.9399,-1.9359,-1.9412,-1.9422,-1.9445,-1.9457,-1.9428,-1.9495,-1.9502,-1.9572,-1.9599,-1.961,-1.9624,-1.9593,-1.9711,-1.9722,-1.9733,-1.9771,-1.9785,-1.9607,-1.9607,-1.9606,-1.9606,0,-1.943,-1.9467,-1.9507,-1.953,-1.955,-1.9598,-1.9585,-1.9608,-1.9591,-1.9586,-1.9643,-1.9649,-1.9679,-1.9694,-1.9677,-1.9762,-1.9746,-1.9715,-1.9665,-1.9754,-1.9789,-1.9803,-1.9614,-1.9612,-1.9611,-1.961,0,0,-1.9574,-1.9585,-1.96,-1.9611,-1.9623,-1.9652,-1.9698,-1.9727,-1.9748,-1.9765,-1.9804,-1.985,-1.9822,-1.9836,-1.9821,-1.9857,-1.9943,-1.9821,-1.9821,-1.9844,-2.0038,-2.0062,-2.0079,-1.9926,-1.9928,-1.993,-2.0037,0,-1.9677,-1.9757,-1.9739,-1.9818,-1.9853,-1.9816,-1.9856,-1.9869,-1.9866,-1.9896,-1.9892,-1.9926,-1.9885,-1.9894,-1.9928,-1.9926,-1.9982,-1.9918,-1.9962,-1.9964,-1.9961,-2.0097,-2.0123,-2.0223,-2.005,-2.0053,-2.0054,0,-1.9808,-1.9831,-1.9913,-1.9921,-1.9935,-1.9971,-1.9997,-2.0025,-2.0039,-2.0034,-2.0051,-2.0029,-2.0076,-2.0025,-2.0089,-2.0046,-2.0063,-2.0065,-2.0068,-2.0072,-2.0015,-2.0106,-2.0255,-2.027,-2.0076,-2.0074,-2.0072,0,-1.9907,-1.9957,-2.0013,-2.0023,-2.0033,-2.006,-2.0066,-2.0076,-2.0095,-2.0117,-2.0129,-2.0156,-2.0172,-2.0194,-2.018,-2.0144,-2.0247,-2.0194,-2.0245,-2.0246,-2.027,-2.0269,-2.0424,-2.0279,-2.0279,-2.0279,-2.0278,0,-2.0024,-2.0077,-2.0058,-2.0093,-2.015,-2.0129,-2.0187,-2.0188,-2.0198,-2.0233,-2.0202,-2.0235,-2.0214,-2.0246,-2.0236,-2.0291,-2.0298,-2.0296,-2.0293,-2.03,-2.03,-2.0311,-2.0304,-2.0283,-2.0282,-2.0281,-2.028,0,-2.0145,-2.0134,-2.0193,-2.0198,-2.0201,-2.0243,-2.0247,-2.028,-2.0274,-2.0319,-2.0328,-2.032,-2.0356,-2.0344,-2.0382,-2.0375,-2.0446,-2.0434,-2.0442,-2.0439,-2.0491,-2.0487,-2.066,-2.0682,-2.0522,-2.0524,-2.0525,0,-2.0221,-2.026,-2.0269,-2.029,-2.0298,-2.0332,-2.0351,-2.0332,-2.0354,-2.0372,-2.0403,-2.0436,-2.0461,-2.052,-2.0519,-2.0548,-2.0536,-2.0595,-2.0541,-2.0546,-2.0538,-2.0537,-2.0541,-2.0606,-2.0608,-2.061,-2.0611,0,-2.0357,-2.035,-2.0379,-2.0406,-2.043,-2.045,-2.0468,-2.0487,-2.0469,-2.0495,-2.0531,-2.0551,-2.059,-2.0624,-2.065,-2.0656,-2.0631,-2.0628,-2.0641,-2.0649,-2.0653,-2.0652,-2.0473,-2.0624,-2.0623,-2.0622,-2.0621,-2.0621,-2.0458,-2.0492,-2.0504,-2.0537,-2.0549,-2.0566,-2.0597,-2.0596,-2.0626,-2.0657,-2.0644,-2.0686,-2.0699,-2.0732,-2.0742,-2.0775,-2.0752,-2.0772,-2.0777,-2.0782,-2.0789,-2.0647,-2.0779,-2.0779,-2.0779,-2.0778,-2.0778,0,-2.0594,-2.06,-2.0631,-2.0657,-2.0683,-2.0657,-2.0675,-2.0699,-2.0737,-2.0751,-2.0777,-2.0819,-2.0851,-2.0852,-2.0883,-2.0909,-2.0898,-2.0918,-2.0916,-2.0918,-2.0807,-2.0793,-2.0926,-2.0926,-2.0926,-2.0926,-2.0926,-2.0926,-2.0668,-2.0724,-2.0718,-2.078,-2.0785,-2.0827,-2.084,-2.0856,-2.0867,-2.0916,-2.0943,-2.0943,-2.0952,-2.0983,-2.1012,-2.1011,-2.1024,-2.1048,-2.1044,-2.094,-2.0926,-2.0912,-2.0898,-2.1051,-2.1051,-2.1152,-2.1153,-2.1154]},{"header":{"parameterUnit":"m.s-1","parameterCategory":1,"la1":30.2991,"la2":30.254,"lo1":-89.0895,"lo2":-89.0444,"dx":0.0017,"dy":0.0017,"nx":28,"ny":28,"refTime":"2023-02-06T15:00:00:Z","depth":0,"parameterNumber":3,"parameterNumberName":"V-component_of_WINDS"},"data":[0,0,0,0,0,0,0,0,0,0,0,0,0,0,0,0,0,0,0,0,0,0,0,0,0,0,0,0,0,0,0,0,0,0,0,0,0,0,0,0,0,0,0,0,0,0,0,0,0,0,0,0,0,0,0,0,0,0,-2.2158,-2.2159,0,-2.2185,-2.2186,-2.2186,-2.2154,-2.2153,-2.2152,-2.2151,-2.2176,-2.2178,-2.218,0,0,0,0,0,0,0,0,0,0,0,0,0,-2.2077,-2.2079,-2.2158,-2.2159,-2.2159,-2.2185,-2.2186,-2.2186,-2.2154,-2.2153,-2.2151,-2.215,-2.2176,-2.2178,-2.218,0,0,0,0,0,0,0,0,0,0,0,0,0,-2.2109,-2.208,-2.2158,-2.2147,-2.2146,-2.2185,-2.2186,-2.2186,-2.2155,-2.2153,-2.2151,-2.2149,-2.2175,-2.2178,-2.218,-2.2232,0,0,-2.2188,-2.219,0,0,0,0,0,0,0,0,-2.2107,-2.2112,-2.2148,-2.2147,-2.2147,-2.2165,-2.2166,-2.2201,-2.2155,-2.2151,-2.2151,-2.2149,-2.2174,-2.2176,-2.2185,-2.2233,-2.2234,-2.2189,-2.219,-2.2191,-2.2192,0,0,0,0,0,0,0,-2.2105,-2.2111,-2.2169,-2.2148,-2.2148,-2.2139,-2.2142,-2.2173,-2.2172,-2.2151,-2.2149,-2.2153,-2.2173,-2.2183,-2.2186,-2.2235,-2.2189,-2.2191,-2.2193,-2.2194,-2.2326,-2.2328,0,0,0,0,0,0,-2.2105,-2.2109,-2.2168,-2.217,-2.2122,-2.2142,-2.2145,-2.2161,-2.2172,-2.2172,-2.2154,-2.2151,-2.2179,-2.2182,-2.2186,-2.2248,-2.2191,-2.2194,-2.2195,-2.2324,-2.2326,-2.2328,0,0,0,0,0,0,-2.2103,-2.211,-2.2167,-2.2139,-2.2146,-2.2145,-2.2163,-2.2162,-2.2172,-2.2174,-2.2173,-2.2165,-2.2178,-2.2183,-2.2221,-2.2248,-2.2195,-2.2197,-2.2322,-2.2325,-2.2327,-2.2371,0,0,0,0,0,0,-2.2101,-2.211,-2.213,-2.214,-2.2147,-2.2202,-2.2165,-2.2164,-2.2177,-2.2173,-2.2183,-2.2183,-2.2177,-2.2217,-2.2224,-2.2251,-2.22,-2.2319,-2.2323,-2.2326,-2.2367,-2.2375,-2.2381,0,0,0,0,0,-2.2098,-2.2141,-2.2132,-2.2139,-2.2173,-2.2204,-2.2208,-2.22,-2.2179,-2.2199,-2.22,-2.2183,-2.2244,-2.2221,-2.2228,-2.2257,-2.2317,-2.2322,-2.2326,-2.2364,-2.2373,-2.2381,0,0,0,0,0,0,-2.2135,-2.2142,-2.2132,-2.2179,-2.2191,-2.2198,-2.2223,-2.221,-2.2228,-2.2224,-2.2213,-2.2215,-2.2256,-2.226,-2.2235,-2.2307,-2.2277,-2.2283,-2.2303,-2.2312,-2.2319,-2.2318,-2.2202,0,0,0,0,0,-2.2148,-2.2173,-2.2178,-2.222,-2.2226,-2.2224,-2.2237,-2.223,-2.2242,-2.2246,-2.225,-2.2262,-2.2283,-2.2298,-2.2318,-2.2367,-2.2368,-2.239,-2.2397,-2.2403,-2.2408,-2.2434,-2.2444,-2.2342,-2.2342,-2.2342,0,0,-2.2176,-2.2184,-2.22,-2.2227,-2.2236,-2.2261,-2.2228,-2.2257,-2.2276,-2.225,-2.2287,-2.229,-2.2302,-2.2346,-2.2366,-2.2351,-2.2437,-2.2408,-2.2413,-2.2415,-2.244,-2.2449,-2.2458,-2.2345,-2.2345,-2.2344,0,0,-2.2241,-2.2249,-2.2285,-2.2294,-2.2307,-2.2305,-2.2314,-2.2323,-2.2324,-2.2361,-2.2342,-2.2364,-2.2401,-2.2411,-2.242,-2.2488,-2.2472,-2.2494,-2.2533,-2.2558,-2.2566,-2.2573,-2.2597,-2.2606,-2.2499,-2.25,-2.25,0,-2.2275,-2.2314,-2.2304,-2.2335,-2.2347,-2.2325,-2.236,-2.2369,-2.2388,-2.2397,-2.238,-2.2426,-2.2433,-2.2478,-2.2495,-2.2503,-2.2512,-2.2493,-2.2566,-2.2573,-2.2579,-2.2602,-2.2611,-2.2502,-2.2502,-2.2502,-2.2501,0,-2.2354,-2.2381,-2.2408,-2.2427,-2.2442,-2.2475,-2.247,-2.2486,-2.2477,-2.2476,-2.2513,-2.252,-2.2541,-2.2551,-2.2543,-2.2596,-2.2586,-2.2567,-2.2537,-2.2591,-2.2613,-2.2621,-2.2506,-2.2505,-2.2504,-2.2504,0,0,-2.2443,-2.2457,-2.2467,-2.2475,-2.2488,-2.2508,-2.2539,-2.256,-2.2574,-2.2587,-2.2613,-2.2645,-2.2628,-2.2639,-2.2631,-2.2653,-2.2706,-2.2632,-2.2632,-2.2646,-2.2764,-2.2779,-2.2789,-2.2696,-2.2697,-2.2698,-2.2763,0,-2.2509,-2.2564,-2.2556,-2.2608,-2.2633,-2.2612,-2.2639,-2.2649,-2.2649,-2.2669,-2.2669,-2.2692,-2.2667,-2.2674,-2.2695,-2.2695,-2.273,-2.269,-2.2719,-2.272,-2.2717,-2.28,-2.2816,-2.2877,-2.2772,-2.2773,-2.2774,0,-2.2593,-2.261,-2.2665,-2.2673,-2.2683,-2.2708,-2.2726,-2.2745,-2.2756,-2.2754,-2.2767,-2.2754,-2.2784,-2.2753,-2.2794,-2.2768,-2.2779,-2.278,-2.2783,-2.2785,-2.2751,-2.2806,-2.2896,-2.2905,-2.2787,-2.2786,-2.2785,0,-2.2653,-2.2689,-2.2727,-2.2735,-2.2745,-2.2763,-2.2768,-2.2777,-2.279,-2.2805,-2.2814,-2.2832,-2.2842,-2.2857,-2.285,-2.2828,-2.2892,-2.286,-2.2891,-2.2892,-2.2907,-2.2906,-2.3,-2.2913,-2.2913,-2.2912,-2.2912,0,-2.2727,-2.2761,-2.2754,-2.2777,-2.2815,-2.2805,-2.2842,-2.2845,-2.2853,-2.2875,-2.2858,-2.288,-2.2869,-2.2889,-2.2883,-2.2918,-2.2923,-2.2922,-2.292,-2.2924,-2.2924,-2.2932,-2.2928,-2.2915,-2.2914,-2.2914,-2.2913,0,-2.2801,-2.2798,-2.2837,-2.2844,-2.2846,-2.2874,-2.2879,-2.29,-2.2899,-2.2928,-2.2934,-2.2931,-2.2954,-2.2948,-2.2973,-2.2969,-2.3014,-2.3006,-2.301,-2.3009,-2.304,-2.3038,-2.3143,-2.3157,-2.306,-2.3061,-2.3062,0,-2.2849,-2.2875,-2.2885,-2.2899,-2.2906,-2.2929,-2.2942,-2.2932,-2.2947,-2.296,-2.298,-2.3002,-2.3018,-2.3056,-2.3056,-2.3075,-2.3068,-2.3104,-2.3071,-2.3074,-2.3069,-2.3068,-2.307,-2.3111,-2.3112,-2.3113,-2.3113,0,-2.2935,-2.2931,-2.2951,-2.2971,-2.2987,-2.3002,-2.3014,-2.3027,-2.3018,-2.3035,-2.3059,-2.3072,-2.3097,-2.3119,-2.3136,-2.314,-2.3126,-2.3123,-2.3132,-2.3136,-2.3138,-2.3138,-2.3029,-2.3121,-2.3121,-2.312,-2.312,-2.3119,-2.2997,-2.302,-2.303,-2.3052,-2.3061,-2.3073,-2.3094,-2.3095,-2.3114,-2.3135,-2.3128,-2.3155,-2.3164,-2.3185,-2.3192,-2.3212,-2.3199,-2.3211,-2.3214,-2.3217,-2.3221,-2.3134,-2.3215,-2.3215,-2.3215,-2.3214,-2.3214,0,-2.3082,-2.3088,-2.3109,-2.3127,-2.3145,-2.313,-2.3143,-2.3158,-2.3183,-2.3192,-2.3209,-2.3236,-2.3257,-2.3258,-2.3277,-2.3293,-2.3287,-2.3299,-2.3298,-2.3299,-2.3232,-2.3223,-2.3304,-2.3304,-2.3304,-2.3304,-2.3304,-2.3304,-2.3129,-2.3166,-2.3164,-2.3204,-2.3209,-2.3236,-2.3244,-2.3255,-2.3263,-2.3294,-2.3312,-2.3312,-2.3318,-2.3338,-2.3356,-2.3355,-2.3363,-2.3378,-2.3375,-2.3313,-2.3304,-2.3295,-2.3287,-2.338,-2.338,-2.3441,-2.3441,-2.3442]}]]